Flag for France Weather past 2 weeks in Orléans, France

Now
37 °F

Clear.


Feels Like: 35 °F
Forecast: 42 / 57 °F
Wind: 3 mph from Northeast

Location: Orleans Airport


UV Index: 3 (Moderate)

Visibility: N/A


Pressure: 30.21 "Hg

Humidity: 75%

Dew point: 30 °F

Location of OrléansLocation

Historic Weather in Orléans

°F

Orléans temperature yesterday

Maximum temperature yesterday: 61 °F (at 4:30 PM)
Minimum temperature yesterday: 34 °F (at 6:00 AM)
Average temperature yesterday: 48 °F

Past Weeks' High & Low Weather Summary

 TemperatureHumidityPressure
High73 °F (Apr 7, 2:30 PM)100% (Apr 4, 4:00 AM)30.36 "Hg (Apr 4, 4:00 AM)
Low34 °F (Apr 9, 7:30 AM)31% (Apr 16, 5:00 PM)29.50 "Hg (Apr 2, 11:00 PM)
Average53 °F71%30.06 "Hg
* Reported Apr 2 3:00 AM — Apr 17 3:30 AM, Orléans, Weather by CustomWeather, © 2014

Note: Actual official high and low records may vary slightly from our data, if they occured in-between our weather recording intervals... More about our weather records

Advertising

Historic Weather Conditions — Data for Previous 24 hours

 ConditionsComfort  
Time TempWeatherWind HumidityBarometerVisibility
3:30 AM
Apr 17
37 °FClear.3 mph75%30.21 "HgN/A
3:00 AM37 °FClear.5 mph75%30.21 "HgN/A
2:30 AM39 °FClear.3 mph70%30.21 "HgN/A
2:00 AM39 °FClear.5 mph75%30.21 "HgN/A
1:30 AM39 °FClear.5 mph75%30.21 "HgN/A
1:00 AM41 °FClear.7 mph70%30.21 "HgN/A
12:30 AM43 °FClear.6 mph66%30.21 "HgN/A
12:00 AM43 °FClear.7 mph66%30.21 "HgN/A
11:30 PM
Apr 16
43 °FClear.6 mph66%30.21 "HgN/A
11:00 PM45 °FClear.6 mph61%30.24 "HgN/A
10:30 PM46 °FClear.7 mph57%30.24 "HgN/A
10:00 PM46 °FClear.8 mph62%30.24 "HgN/A
9:30 PM48 °FClear.6 mph58%30.24 "HgN/A
9:00 PM52 °FClear.9 mph47%30.21 "HgN/A
8:30 PM55 °FClear.10 mph38%30.21 "HgN/A
8:00 PM57 °FClear.12 mph39%30.21 "HgN/A
7:30 PM59 °FClear.14 mph36%30.21 "HgN/A
7:00 PM59 °FClear.15 mph36%30.21 "HgN/A
6:30 PM61 °FClear.15 mph34%30.21 "HgN/A
6:00 PM61 °FClear.17 mph34%30.24 "HgN/A
5:30 PM61 °FClear.17 mph34%30.24 "HgN/A
5:00 PM61 °FClear.16 mph31%30.24 "HgN/A
4:30 PM61 °FClear.17 mph34%30.24 "HgN/A
4:00 PM59 °FClear.18 mph36%30.27 "HgN/A
3:30 PM59 °FClear.16 mph36%30.27 "HgN/A
3:00 PM59 °FClear.16 mph36%30.27 "HgN/A
2:30 PM59 °FClear.17 mph34%30.27 "HgN/A
2:00 PM57 °FClear.17 mph39%30.27 "HgN/A
1:30 PM57 °FClear.17 mph36%30.27 "HgN/A
1:00 PM55 °FClear.17 mph41%30.27 "HgN/A
12:30 PM55 °FClear.14 mph38%30.30 "HgN/A
12:00 PM54 °FClear.16 mph41%30.30 "HgN/A
11:30 AM54 °FClear.15 mph44%30.30 "HgN/A
11:00 AM52 °FClear.16 mph44%30.30 "HgN/A
10:30 AM50 °FClear.16 mph47%30.30 "HgN/A
10:00 AM46 °FClear.7 mph62%30.30 "HgN/A
9:30 AM45 °FClear.9 mph66%30.30 "HgN/A
9:00 AM41 °FClear.12 mph76%30.30 "HgN/A
8:30 AM39 °FClear.10 mph81%30.30 "HgN/A
8:00 AM36 °FClear.8 mph87%30.30 "HgN/A
7:30 AM34 °FClear.6 mph87%30.30 "HgN/A
7:00 AM34 °FClear.9 mph87%30.30 "HgN/A
6:30 AM34 °FClear.9 mph87%30.27 "HgN/A
6:00 AM34 °FClear.8 mph93%30.30 "HgN/A
5:30 AM36 °FClear.8 mph81%30.30 "HgN/A
5:00 AM36 °FClear.8 mph81%30.30 "HgN/A
4:30 AM36 °FClear.6 mph81%30.27 "HgN/A
4:00 AM36 °FClear.5 mph87%30.27 "HgN/A
Weather by CustomWeather, © 2014

See weather overview